Back to catalog

TITAN 3C TRANSTAGE DEB

AliveHEO
NORAD 5992·DEBRIS·🇺🇸 United States

Launched Dec 21, 1965 from Cape Canaveral Space Force Station

Loading…

Next Passes (next 24 hours)

TLE

FreshSource: Space-Track

Epoch: Sep 13, 2026, 10:09 UTC

1 05992U 65108S   26256.42302054  .00000252  00000-0  28485-1 0  9993
2 05992  27.2841  46.4648 6637078 207.0282  92.2992  2.66187070 19269

Track TITAN 3C TRANSTAGE DEB in real time with AllMySat

Download on the App Store